Time,TemperatureF,DewpointF,PressureIn,WindDirection,WindDirectionDegrees,WindSpeedMPH,WindSpeedGustMPH,Humidity,HourlyPrecipIn,Conditions,Clouds,dailyrainin,SolarRadiationWatts/m^2,SoftwareType,DateUTC
2013-09-15 00:02:00,56.3,52.8,29.92,NW,308,0.0,0.0,88,0.03,, +RA,0.00,0.00,VWS V14.01,2013-09-15 05:02:00,
2013-09-15 00:07:00,56.3,52.8,29.91,NW,308,0.0,0.0,88,0.03,, +RA,0.00,0.00,VWS V14.01,2013-09-15 05:07:00,
2013-09-15 00:12:00,56.3,52.8,29.91,NW,308,0.0,0.0,88,0.03,, +RA,0.00,0.00,VWS V14.01,2013-09-15 05:12:00,
2013-09-15 00:17:00,56.3,52.8,29.91,NW,308,0.0,0.0,88,0.03,, +RA,0.00,0.00,VWS V14.01,2013-09-15 05:17:00,
2013-09-15 00:22:00,56.3,52.8,29.91,NW,308,0.0,0.0,88,0.03,,-RA,0.00,0.00,VWS V14.01,2013-09-15 05:22:00,
2013-09-15 00:27:00,56.2,52.7,29.91,NW,308,0.0,0.0,88,0.03,,-RA,0.00,0.00,VWS V14.01,2013-09-15 05:27:00,
2013-09-15 00:32:00,56.2,52.7,29.92,NW,308,0.0,0.0,88,0.01,,-RA,0.00,0.00,VWS V14.01,2013-09-15 05:32:00,
2013-09-15 00:37:00,56.1,52.6,29.92,NW,308,0.0,0.0,88,0.01,,-RA,0.00,0.00,VWS V14.01,2013-09-15 05:37:00,
2013-09-15 00:42:00,56.2,52.7,29.91,NW,308,0.0,0.0,88,0.01,,-RA,0.00,0.00,VWS V14.01,2013-09-15 05:42:00,
2013-09-15 00:47:00,56.1,52.6,29.92,NW,308,0.0,0.0,88,0.02,,-RA,0.01,0.00,VWS V14.01,2013-09-15 05:47:00,
2013-09-15 00:52:00,56.0,52.5,29.91,NW,308,0.0,0.0,88,0.02,,-RA,0.01,0.00,VWS V14.01,2013-09-15 05:52:00,
2013-09-15 00:57:00,56.0,52.5,29.91,NW,308,0.0,0.0,88,0.02,,-RA,0.01,0.00,VWS V14.01,2013-09-15 05:57:00,
2013-09-15 01:02:00,56.0,52.5,29.91,NW,308,0.0,0.0,88,0.01,,-RA,0.01,0.00,VWS V14.01,2013-09-15 06:02:00,
2013-09-15 01:07:00,56.0,52.5,29.92,NW,308,0.0,1.0,88,0.01,,-RA,0.01,0.00,VWS V14.01,2013-09-15 06:07:00,
2013-09-15 01:12:00,55.9,52.4,29.91,NW,308,0.0,1.0,88,0.01,,-RA,0.01,0.00,VWS V14.01,2013-09-15 06:12:00,
2013-09-15 01:17:00,55.9,52.4,29.91,NW,308,0.0,1.0,88,0.01,,-RA,0.01,0.00,VWS V14.01,2013-09-15 06:17:00,
2013-09-15 01:22:00,55.9,52.4,29.91,NW,308,0.0,1.0,88,0.01,,-RA,0.01,0.00,VWS V14.01,2013-09-15 06:22:00,
2013-09-15 01:27:00,55.8,52.3,29.91,NW,308,0.0,1.0,88,0.01,,-RA,0.01,0.00,VWS V14.01,2013-09-15 06:27:00,
2013-09-15 01:32:00,55.7,52.2,29.91,NW,308,0.0,0.0,88,0.01,,-RA,0.01,0.00,VWS V14.01,2013-09-15 06:32:00,
2013-09-15 01:37:00,55.7,52.2,29.91,NW,308,0.0,1.0,88,0.01,,-RA,0.01,0.00,VWS V14.01,2013-09-15 06:37:00,
2013-09-15 01:42:00,55.7,52.2,29.90,NW,308,0.0,1.0,88,0.01,,-RA,0.01,0.00,VWS V14.01,2013-09-15 06:42:00,
2013-09-15 01:47:00,55.7,52.2,29.90,NW,308,0.0,1.0,88,0.01,,-RA,0.01,0.00,VWS V14.01,2013-09-15 06:47:00,
2013-09-15 01:52:00,55.7,52.2,29.90,NW,308,0.0,1.0,88,0.01,,-RA,0.01,0.00,VWS V14.01,2013-09-15 06:52:00,
2013-09-15 01:57:00,55.7,52.2,29.90,NW,308,0.0,1.0,88,0.01,,-RA,0.01,0.00,VWS V14.01,2013-09-15 06:57:00,
2013-09-15 02:02:00,55.6,52.1,29.90,NW,308,0.0,2.0,88,0.00,,-RA,0.01,0.00,VWS V14.01,2013-09-15 07:02:00,
2013-09-15 02:07:00,55.6,52.1,29.89,NW,308,1.0,2.0,88,0.00,,-RA,0.01,0.00,VWS V14.01,2013-09-15 07:07:00,
2013-09-15 02:12:00,55.6,52.1,29.89,NW,308,0.0,2.0,88,0.01,,-RA,0.02,0.00,VWS V14.01,2013-09-15 07:12:00,
2013-09-15 02:17:00,55.6,52.1,29.89,NW,308,0.0,2.0,88,0.01,,-RA,0.02,0.00,VWS V14.01,2013-09-15 07:17:00,
2013-09-15 02:22:00,55.6,52.1,29.89,NW,308,0.0,2.0,88,0.01,,OVC045,0.02,0.00,VWS V14.01,2013-09-15 07:22:00,
2013-09-15 02:27:00,55.6,52.1,29.89,NW,308,0.0,2.0,88,0.01,,OVC045,0.02,0.00,VWS V14.01,2013-09-15 07:27:00,
2013-09-15 02:32:00,55.5,52.0,29.89,NW,308,0.0,2.0,88,0.02,,OVC045,0.03,0.00,VWS V14.01,2013-09-15 07:32:00,
2013-09-15 02:37:00,55.5,52.0,29.89,NW,308,0.0,2.0,88,0.02,,OVC045,0.03,0.00,VWS V14.01,2013-09-15 07:37:00,
2013-09-15 02:42:00,55.5,52.0,29.89,NW,308,0.0,2.0,88,0.02,,OVC045,0.03,0.00,VWS V14.01,2013-09-15 07:42:00,
2013-09-15 02:47:00,55.6,52.1,29.89,NW,308,0.0,2.0,88,0.02,,OVC045,0.03,0.00,VWS V14.01,2013-09-15 07:47:00,
2013-09-15 02:52:00,55.6,52.1,29.89,NW,308,1.0,3.0,88,0.02,,OVC045,0.03,0.00,VWS V14.01,2013-09-15 07:52:00,
2013-09-15 02:57:00,55.6,52.1,29.88,NW,308,0.0,3.0,88,0.03,,OVC045,0.04,0.00,VWS V14.01,2013-09-15 07:57:00,
2013-09-15 03:02:00,55.6,52.1,29.88,NW,308,0.0,1.0,88,0.03,,-RA,0.04,0.00,VWS V14.01,2013-09-15 08:02:00,
2013-09-15 03:07:00,55.6,52.1,29.88,NW,308,0.0,1.0,88,0.04,,-RA,0.05,0.00,VWS V14.01,2013-09-15 08:07:00,
2013-09-15 03:12:00,55.6,52.1,29.88,NW,308,0.0,1.0,88,0.04,,-RA,0.05,0.00,VWS V14.01,2013-09-15 08:12:00,
2013-09-15 03:17:00,55.5,52.0,29.88,NW,308,0.0,1.0,88,0.04,,-RA,0.05,0.00,VWS V14.01,2013-09-15 08:17:00,
2013-09-15 03:22:00,55.5,52.0,29.88,ESE,123,0.0,2.0,88,0.04,,-RA,0.05,0.00,VWS V14.01,2013-09-15 08:22:00,
2013-09-15 03:27:00,55.6,52.1,29.88,ESE,123,0.0,2.0,88,0.04,,-RA,0.05,0.00,VWS V14.01,2013-09-15 08:27:00,
2013-09-15 03:32:00,55.5,52.0,29.88,ESE,123,0.0,0.0,88,0.03,,-RA,0.05,0.00,VWS V14.01,2013-09-15 08:32:00,
2013-09-15 03:37:00,55.6,52.1,29.88,ESE,123,0.0,1.0,88,0.04,,-RA,0.06,0.00,VWS V14.01,2013-09-15 08:37:00,
2013-09-15 03:42:00,55.5,52.0,29.88,ENE,68,0.0,1.0,88,0.05,,RA,0.07,0.00,VWS V14.01,2013-09-15 08:42:00,
2013-09-15 03:47:00,55.5,52.0,29.88,ENE,68,0.0,1.0,88,0.06,,RA,0.08,0.00,VWS V14.01,2013-09-15 08:47:00,
2013-09-15 03:52:00,55.5,52.0,29.88,ENE,68,0.0,1.0,88,0.07,,RA,0.09,0.00,VWS V14.01,2013-09-15 08:52:00,
2013-09-15 03:57:00,55.5,52.0,29.88,ESE,123,0.0,2.0,88,0.07,,RA,0.09,0.00,VWS V14.01,2013-09-15 08:57:00,
2013-09-15 04:02:00,55.5,52.0,29.88,ESE,123,0.0,1.0,88,0.06,,RA,0.10,0.00,VWS V14.01,2013-09-15 09:02:00,
2013-09-15 04:07:00,55.5,52.0,29.87,ESE,123,0.0,1.0,88,0.07,,RA,0.11,0.00,VWS V14.01,2013-09-15 09:07:00,
2013-09-15 04:12:00,55.5,52.0,29.87,ESE,123,0.0,1.0,88,0.07,,RA,0.11,0.00,VWS V14.01,2013-09-15 09:12:00,
2013-09-15 04:17:00,55.4,51.9,29.87,ESE,123,0.0,1.0,88,0.07,,RA,0.11,0.00,VWS V14.01,2013-09-15 09:17:00,
2013-09-15 04:22:00,55.5,52.0,29.88,ESE,123,0.0,1.0,88,0.08,, +RA,0.12,0.00,VWS V14.01,2013-09-15 09:22:00,
2013-09-15 04:27:00,55.5,52.0,29.87,ESE,123,0.0,1.0,88,0.08,, +RA,0.12,0.00,VWS V14.01,2013-09-15 09:27:00,
2013-09-15 04:32:00,55.5,52.0,29.88,ESE,123,0.0,0.0,88,0.08,, +RA,0.13,0.00,VWS V14.01,2013-09-15 09:32:00,
2013-09-15 04:37:00,55.5,52.0,29.89,ESE,123,0.0,0.0,88,0.08,, +RA,0.13,0.00,VWS V14.01,2013-09-15 09:37:00,
2013-09-15 04:42:00,55.5,52.0,29.89,ESE,123,0.0,0.0,88,0.10,, +RA,0.15,0.00,VWS V14.01,2013-09-15 09:42:00,
2013-09-15 04:47:00,55.6,52.1,29.89,ESE,123,0.0,0.0,88,0.11,, +RA,0.16,0.00,VWS V14.01,2013-09-15 09:47:00,
2013-09-15 04:52:00,55.5,52.0,29.89,ESE,123,0.0,0.0,88,0.12,, +RA,0.17,0.00,VWS V14.01,2013-09-15 09:52:00,
2013-09-15 04:57:00,55.5,52.0,29.90,ESE,123,0.0,0.0,88,0.13,, +RA,0.18,0.00,VWS V14.01,2013-09-15 09:57:00,
2013-09-15 05:02:00,55.5,52.0,29.90,ESE,123,0.0,0.0,88,0.09,,RA,0.19,0.00,VWS V14.01,2013-09-15 10:02:00,
2013-09-15 05:07:00,55.5,52.0,29.90,ESE,123,0.0,0.0,88,0.10,,RA,0.20,0.00,VWS V14.01,2013-09-15 10:07:00,
2013-09-15 05:12:00,55.5,52.0,29.89,ESE,123,0.0,0.0,88,0.11,,RA,0.21,0.00,VWS V14.01,2013-09-15 10:12:00,
2013-09-15 05:17:00,55.5,52.0,29.89,ESE,123,0.0,0.0,88,0.12,,RA,0.22,0.00,VWS V14.01,2013-09-15 10:17:00,
2013-09-15 05:22:00,55.6,52.1,29.89,ESE,123,0.0,0.0,88,0.13,, +RA,0.23,0.00,VWS V14.01,2013-09-15 10:22:00,
2013-09-15 05:27:00,55.6,52.1,29.89,ESE,123,0.0,0.0,88,0.14,, +RA,0.24,0.00,VWS V14.01,2013-09-15 10:27:00,
2013-09-15 05:32:00,55.6,52.1,29.89,ESE,123,0.0,0.0,88,0.13,, +RA,0.25,0.00,VWS V14.01,2013-09-15 10:32:00,
2013-09-15 05:37:00,55.6,52.1,29.89,ESE,123,0.0,0.0,88,0.15,, +RA,0.27,0.00,VWS V14.01,2013-09-15 10:37:00,
2013-09-15 05:42:00,55.6,52.1,29.89,ESE,123,0.0,0.0,88,0.15,,RA,0.27,0.00,VWS V14.01,2013-09-15 10:42:00,
2013-09-15 05:47:00,55.6,52.1,29.89,ESE,123,0.0,0.0,88,0.16,,RA,0.28,0.00,VWS V14.01,2013-09-15 10:47:00,
2013-09-15 05:52:00,55.5,52.0,29.89,ESE,123,0.0,0.0,88,0.16,,RA,0.28,0.00,VWS V14.01,2013-09-15 10:52:00,
2013-09-15 05:57:00,55.5,52.0,29.90,ESE,123,0.0,0.0,88,0.17,,RA,0.29,0.00,VWS V14.01,2013-09-15 10:57:00,
2013-09-15 06:02:00,55.5,52.0,29.90,ESE,123,0.0,0.0,88,0.11,,RA,0.29,0.00,VWS V14.01,2013-09-15 11:02:00,
2013-09-15 06:07:00,55.6,52.1,29.90,ESE,123,0.0,0.0,88,0.11,,RA,0.29,0.00,VWS V14.01,2013-09-15 11:07:00,
2013-09-15 06:12:00,55.6,52.1,29.90,ESE,123,0.0,0.0,88,0.12,,RA,0.30,0.00,VWS V14.01,2013-09-15 11:12:00,
2013-09-15 06:17:00,55.5,52.0,29.90,ESE,123,0.0,0.0,88,0.13,,RA,0.31,0.00,VWS V14.01,2013-09-15 11:17:00,
2013-09-15 06:22:00,55.5,52.0,29.90,ESE,123,0.0,0.0,88,0.14,, +RA,0.32,0.00,VWS V14.01,2013-09-15 11:22:00,
2013-09-15 06:27:00,55.5,52.0,29.90,ESE,123,0.0,0.0,88,0.15,, +RA,0.33,0.00,VWS V14.01,2013-09-15 11:27:00,
2013-09-15 06:32:00,55.5,52.0,29.90,ESE,123,0.0,0.0,88,0.08,, +RA,0.33,0.00,VWS V14.01,2013-09-15 11:32:00,
2013-09-15 06:37:00,55.5,52.0,29.90,ESE,123,0.0,0.0,88,0.09,, +RA,0.34,0.00,VWS V14.01,2013-09-15 11:37:00,
2013-09-15 06:42:00,55.5,52.0,29.91,ESE,123,0.0,0.0,88,0.10,, +RA,0.35,0.00,VWS V14.01,2013-09-15 11:42:00,
2013-09-15 06:47:00,55.5,52.0,29.91,ESE,123,0.0,0.0,88,0.10,, +RA,0.35,0.00,VWS V14.01,2013-09-15 11:47:00,
2013-09-15 06:52:00,55.5,52.0,29.91,ESE,123,0.0,0.0,88,0.11,, +RA,0.36,0.00,VWS V14.01,2013-09-15 11:52:00,
2013-09-15 06:57:00,55.5,52.0,29.91,ESE,123,0.0,0.0,88,0.11,, +RA,0.36,0.00,VWS V14.01,2013-09-15 11:57:00,
2013-09-15 07:02:00,55.6,52.1,29.91,ESE,123,0.0,0.0,88,0.07,, +RA,0.36,0.00,VWS V14.01,2013-09-15 12:02:00,
2013-09-15 07:07:00,55.6,52.1,29.91,ESE,123,0.0,0.0,88,0.07,, +RA,0.36,5.00,VWS V14.01,2013-09-15 12:07:00,
2013-09-15 07:12:00,55.6,52.1,29.91,ESE,123,0.0,0.0,88,0.07,, +RA,0.36,7.00,VWS V14.01,2013-09-15 12:12:00,
2013-09-15 07:17:00,55.6,52.1,29.91,ESE,123,0.0,0.0,88,0.07,, +RA,0.36,9.00,VWS V14.01,2013-09-15 12:17:00,
2013-09-15 07:22:00,55.7,52.2,29.92,ESE,123,0.0,0.0,88,0.08,, +RA,0.37,5.00,VWS V14.01,2013-09-15 12:22:00,
2013-09-15 07:27:00,55.7,52.2,29.92,ESE,123,0.0,0.0,88,0.08,, +RA,0.37,5.00,VWS V14.01,2013-09-15 12:27:00,
2013-09-15 07:32:00,55.7,52.2,29.92,ESE,123,0.0,0.0,88,0.04,, +RA,0.37,9.00,VWS V14.01,2013-09-15 12:32:00,
2013-09-15 07:37:00,55.7,52.2,29.92,ESE,123,0.0,0.0,88,0.04,, +RA,0.37,14.00,VWS V14.01,2013-09-15 12:37:00,
2013-09-15 07:42:00,55.8,52.3,29.92,ESE,123,0.0,0.0,88,0.04,, +RA,0.37,23.00,VWS V14.01,2013-09-15 12:42:00,
2013-09-15 07:47:00,55.8,52.3,29.92,ESE,123,0.0,0.0,88,0.04,, +RA,0.37,32.00,VWS V14.01,2013-09-15 12:47:00,
2013-09-15 07:52:00,55.9,52.4,29.92,ESE,123,0.0,0.0,88,0.04,, +RA,0.37,53.00,VWS V14.01,2013-09-15 12:52:00,
2013-09-15 07:57:00,56.0,52.5,29.92,ESE,123,0.0,0.0,88,0.04,, +RA,0.37,60.00,VWS V14.01,2013-09-15 12:57:00,
2013-09-15 08:02:00,56.1,52.6,29.92,ESE,123,0.0,0.0,88,0.01,, +RA,0.37,42.00,VWS V14.01,2013-09-15 13:02:00,
2013-09-15 08:07:00,56.2,52.7,29.93,ESE,123,0.0,0.0,88,0.01,, +RA,0.37,90.00,VWS V14.01,2013-09-15 13:07:00,
2013-09-15 08:12:00,56.3,52.8,29.93,ESE,123,0.0,0.0,88,0.01,, +RA,0.37,67.00,VWS V14.01,2013-09-15 13:12:00,
2013-09-15 08:17:00,56.4,52.9,29.93,ESE,123,0.0,0.0,88,0.01,, +RA,0.37,46.00,VWS V14.01,2013-09-15 13:17:00,
2013-09-15 08:22:00,56.4,52.9,29.93,ESE,123,0.0,0.0,88,0.01,,OVC013,0.37,39.00,VWS V14.01,2013-09-15 13:22:00,
2013-09-15 08:27:00,56.4,52.9,29.93,ESE,123,0.0,0.0,88,0.01,,OVC013,0.37,21.00,VWS V14.01,2013-09-15 13:27:00,
2013-09-15 08:32:00,56.4,52.9,29.93,ESE,123,0.0,0.0,88,0.00,,OVC013,0.37,35.00,VWS V14.01,2013-09-15 13:32:00,
2013-09-15 08:37:00,56.4,52.9,29.93,ESE,123,0.0,0.0,88,0.00,,OVC013,0.37,76.00,VWS V14.01,2013-09-15 13:37:00,
2013-09-15 08:42:00,56.5,53.0,29.94,ESE,123,0.0,0.0,88,0.00,,OVC013,0.37,105.00,VWS V14.01,2013-09-15 13:42:00,
2013-09-15 08:47:00,56.6,53.1,29.94,ESE,123,0.0,0.0,88,0.00,,OVC013,0.37,109.00,VWS V14.01,2013-09-15 13:47:00,
2013-09-15 08:52:00,56.8,53.3,29.94,ESE,123,0.0,0.0,88,0.00,,OVC013,0.37,102.00,VWS V14.01,2013-09-15 13:52:00,
2013-09-15 08:57:00,56.9,53.4,29.94,ESE,123,0.0,0.0,88,0.00,,OVC013,0.37,95.00,VWS V14.01,2013-09-15 13:57:00,
2013-09-15 09:02:00,57.0,53.5,29.94,ESE,123,0.0,1.0,88,0.00,,OVC013,0.37,128.00,VWS V14.01,2013-09-15 14:02:00,
2013-09-15 09:07:00,57.1,53.6,29.94,ESE,123,0.0,1.0,88,0.00,,OVC013,0.37,148.00,VWS V14.01,2013-09-15 14:07:00,
2013-09-15 09:12:00,57.2,53.7,29.94,ESE,123,0.0,1.0,88,0.00,,OVC013,0.37,123.00,VWS V14.01,2013-09-15 14:12:00,
2013-09-15 09:17:00,57.4,53.9,29.95,ESE,123,0.0,1.0,88,0.00,,OVC013,0.37,142.00,VWS V14.01,2013-09-15 14:17:00,
2013-09-15 09:22:00,57.5,54.0,29.95,ESE,123,0.0,1.0,88,0.00,,OVC011,0.37,171.00,VWS V14.01,2013-09-15 14:22:00,
2013-09-15 09:27:00,57.6,54.1,29.95,ESE,123,0.0,1.0,88,0.00,,OVC011,0.37,146.00,VWS V14.01,2013-09-15 14:27:00,
2013-09-15 09:32:00,57.6,54.1,29.96,SE,126,0.0,1.0,88,0.00,,OVC011,0.37,76.00,VWS V14.01,2013-09-15 14:32:00,
2013-09-15 09:37:00,57.4,53.9,29.96,South,171,0.0,1.0,88,0.00,,OVC011,0.37,102.00,VWS V14.01,2013-09-15 14:37:00,
2013-09-15 09:42:00,57.4,53.9,29.96,South,171,0.0,1.0,88,0.00,,OVC012,0.37,97.00,VWS V14.01,2013-09-15 14:42:00,
2013-09-15 09:47:00,57.4,53.9,29.96,South,171,0.0,1.0,88,0.00,,OVC012,0.37,130.00,VWS V14.01,2013-09-15 14:47:00,
2013-09-15 09:53:00,57.5,54.0,29.96,South,171,0.0,1.0,88,0.10,,OVC012,0.37,165.00,VWS V14.01,2013-09-15 14:53:00,
2013-09-15 09:58:00,57.7,54.2,29.96,South,171,0.0,1.0,88,0.10,,OVC012,0.37,169.00,VWS V14.01,2013-09-15 14:58:00,
2013-09-15 11:00:00,59.0,56.1,29.99,WNW,292,0.0,3.0,90,0.10,,,0.37,239.00,VWS V14.01,2013-09-15 16:00:00,
2013-09-15 11:39:00,59.5,56.3,30.00,SE,134,0.0,0.0,89,0.10,,,0.37,213.00,VWS V14.01,2013-09-15 16:39:00,
2013-09-15 11:44:00,59.6,56.4,30.00,NW,315,0.0,3.0,89,0.00,,BKN032,0.37,257.00,VWS V14.01,2013-09-15 16:44:00,
2013-09-15 11:49:00,59.7,56.5,30.00,NW,315,0.0,3.0,89,0.00,,BKN032,0.37,98.00,VWS V14.01,2013-09-15 16:49:00,
2013-09-15 11:54:00,60.1,56.8,30.00,NW,315,0.0,3.0,89,0.00,,BKN032,0.37,79.00,VWS V14.01,2013-09-15 16:54:00,
2013-09-15 11:59:00,60.5,57.2,30.00,NW,315,0.0,0.0,89,0.00,,BKN032,0.37,125.00,VWS V14.01,2013-09-15 16:59:00,
2013-09-15 12:04:00,61.1,57.8,30.00,NW,315,0.0,2.0,89,0.00,,BKN032,0.37,288.00,VWS V14.01,2013-09-15 17:04:00,
2013-09-15 12:09:00,61.4,57.8,30.00,NW,315,0.0,2.0,88,0.00,,BKN032,0.37,192.00,VWS V14.01,2013-09-15 17:09:00,
2013-09-15 12:14:00,61.4,57.2,30.00,WSW,240,0.0,2.0,86,0.00,,BKN032,0.37,265.00,VWS V14.01,2013-09-15 17:14:00,
2013-09-15 12:19:00,61.3,56.8,30.00,West,273,0.0,2.0,85,0.00,,OVC028,0.37,299.00,VWS V14.01,2013-09-15 17:19:00,
2013-09-15 12:24:00,61.5,57.0,30.01,WNW,289,0.0,2.0,85,0.00,,OVC028,0.37,186.00,VWS V14.01,2013-09-15 17:24:00,
2013-09-15 12:29:00,61.5,57.0,30.01,NW,315,0.0,1.0,85,0.00,,OVC028,0.37,223.00,VWS V14.01,2013-09-15 17:29:00,
2013-09-15 12:34:00,61.4,56.9,30.01,NW,315,0.0,1.0,85,0.00,,OVC028,0.37,221.00,VWS V14.01,2013-09-15 17:34:00,
2013-09-15 12:39:00,61.5,57.3,30.01,NW,315,0.0,1.0,86,0.00,,OVC037,0.37,292.00,VWS V14.01,2013-09-15 17:39:00,
2013-09-15 12:44:00,61.7,57.2,30.01,NW,315,0.0,2.0,85,0.00,,OVC037,0.37,323.00,VWS V14.01,2013-09-15 17:44:00,
2013-09-15 12:49:00,62.0,57.8,30.01,NW,315,0.0,2.0,86,0.00,,OVC037,0.37,436.00,VWS V14.01,2013-09-15 17:49:00,
2013-09-15 12:54:00,62.5,57.3,30.01,North,355,0.0,9.0,83,0.00,,OVC037,0.37,243.00,VWS V14.01,2013-09-15 17:54:00,
2013-09-15 12:59:00,62.6,57.0,30.02,NNW,347,0.0,1.0,82,0.00,,OVC037,0.37,188.00,VWS V14.01,2013-09-15 17:59:00,
2013-09-15 13:04:00,62.5,56.9,30.02,North,5,0.0,4.0,82,0.00,,OVC037,0.37,265.00,VWS V14.01,2013-09-15 18:04:00,
2013-09-15 13:09:00,62.5,56.9,30.02,North,350,0.0,4.0,82,0.00,,OVC037,0.37,332.00,VWS V14.01,2013-09-15 18:09:00,
2013-09-15 13:14:00,62.9,57.7,30.02,NNW,340,0.0,4.0,83,0.00,,OVC037,0.37,450.00,VWS V14.01,2013-09-15 18:14:00,
2013-09-15 13:19:00,63.1,57.2,30.02,WNW,303,0.0,4.0,81,0.00,,OVC037,0.37,285.00,VWS V14.01,2013-09-15 18:19:00,
2013-09-15 13:24:00,63.4,57.5,30.02,NW,311,0.0,4.0,81,0.00,,OVC037,0.37,258.00,VWS V14.01,2013-09-15 18:24:00,
2013-09-15 13:29:00,63.5,57.9,30.03,NW,311,0.0,0.0,82,0.00,,OVC037,0.37,192.00,VWS V14.01,2013-09-15 18:29:00,
2013-09-15 13:34:00,63.2,57.3,30.03,NW,311,0.0,1.0,81,0.00,,OVC037,0.37,135.00,VWS V14.01,2013-09-15 18:34:00,
2013-09-15 13:39:00,62.9,57.0,30.03,WNW,286,0.0,1.0,81,0.00,,OVC037,0.37,88.00,VWS V14.01,2013-09-15 18:39:00,
2013-09-15 13:44:00,62.5,56.6,30.03,South,190,0.0,1.0,81,0.00,,OVC037,0.37,113.00,VWS V14.01,2013-09-15 18:44:00,
2013-09-15 13:49:00,62.2,56.3,30.03,South,190,0.0,1.0,81,0.00,,OVC037,0.37,121.00,VWS V14.01,2013-09-15 18:49:00,
2013-09-15 13:54:00,62.0,56.5,30.03,SW,226,0.0,1.0,82,0.00,,OVC037,0.37,155.00,VWS V14.01,2013-09-15 18:54:00,
2013-09-15 13:59:00,61.9,56.7,30.04,SW,226,0.0,1.0,83,0.00,,OVC037,0.37,213.00,VWS V14.01,2013-09-15 18:59:00,
2013-09-15 14:04:00,62.0,56.8,30.04,NNW,327,0.0,5.0,83,0.00,,OVC037,0.37,272.00,VWS V14.01,2013-09-15 19:04:00,
2013-09-15 14:09:00,62.2,56.6,30.04,NNW,329,0.0,6.0,82,0.00,,OVC037,0.37,276.00,VWS V14.01,2013-09-15 19:09:00,
2013-09-15 14:14:00,62.6,57.0,30.04,ESE,105,0.0,6.0,82,0.00,,OVC037,0.37,271.00,VWS V14.01,2013-09-15 19:14:00,
2013-09-15 14:18:00,62.8,57.2,30.04,ESE,105,0.0,6.0,82,0.00,,OVC037,0.37,294.00,VWS V14.01,2013-09-15 19:18:00,
2013-09-15 14:23:00,63.1,57.2,30.04,NE,44,0.0,6.0,81,0.00,,OVC045,0.37,343.00,VWS V14.01,2013-09-15 19:23:00,
2013-09-15 14:28:00,63.2,57.3,30.04,North,11,0.0,6.0,81,0.00,,OVC045,0.37,283.00,VWS V14.01,2013-09-15 19:28:00,
2013-09-15 14:33:00,63.3,57.0,30.04,NW,315,1.0,4.0,80,0.00,,OVC045,0.37,264.00,VWS V14.01,2013-09-15 19:33:00,
2013-09-15 14:38:00,63.4,57.1,30.04,NW,315,1.0,4.0,80,0.00,,OVC045,0.37,151.00,VWS V14.01,2013-09-15 19:38:00,
2013-09-15 14:43:00,63.2,56.9,30.05,NNW,330,0.0,4.0,80,0.00,,OVC045,0.37,105.00,VWS V14.01,2013-09-15 19:43:00,
2013-09-15 14:48:00,63.1,56.8,30.05,NW,317,0.0,6.0,80,0.00,,OVC045,0.37,241.00,VWS V14.01,2013-09-15 19:48:00,
2013-09-15 14:53:00,63.0,57.1,30.05,WNW,287,2.0,6.0,81,0.00,,OVC045,0.37,313.00,VWS V14.01,2013-09-15 19:53:00,
2013-09-15 14:58:00,63.4,57.8,30.05,WNW,292,2.0,6.0,82,0.00,,OVC045,0.37,434.00,VWS V14.01,2013-09-15 19:58:00,
2013-09-15 15:03:00,63.7,57.4,30.05,NE,36,0.0,7.0,80,0.00,,OVC049,0.37,120.00,VWS V14.01,2013-09-15 20:03:00,
2013-09-15 15:08:00,63.4,57.5,30.05,NNW,334,0.0,7.0,81,0.00,,OVC049,0.37,213.00,VWS V14.01,2013-09-15 20:08:00,
2013-09-15 15:13:00,63.0,57.1,30.06,NNE,28,0.0,7.0,81,0.00,,OVC049,0.37,267.00,VWS V14.01,2013-09-15 20:13:00,
2013-09-15 15:18:00,62.9,57.0,30.06,NE,44,0.0,7.0,81,0.00,,OVC049,0.37,304.00,VWS V14.01,2013-09-15 20:18:00,
2013-09-15 15:23:00,63.1,57.5,30.06,NNW,340,2.0,11.0,82,0.00,,OVC049,0.37,265.00,VWS V14.01,2013-09-15 20:23:00,
2013-09-15 15:28:00,63.1,56.8,30.07,North,355,0.0,11.0,80,0.00,,OVC049,0.37,258.00,VWS V14.01,2013-09-15 20:28:00,
2013-09-15 15:33:00,62.9,57.0,30.07,ESE,112,0.0,2.0,81,0.00,,OVC049,0.37,343.00,VWS V14.01,2013-09-15 20:33:00,
2013-09-15 15:38:00,63.0,57.1,30.07,ESE,112,1.0,2.0,81,0.00,,OVC049,0.37,445.00,VWS V14.01,2013-09-15 20:38:00,
2013-09-15 15:43:00,63.0,56.7,30.07,NW,304,4.0,4.0,80,0.00,,OVC049,0.37,185.00,VWS V14.01,2013-09-15 20:43:00,
2013-09-15 15:48:00,62.8,56.9,30.07,North,5,0.0,5.0,81,0.00,,OVC049,0.37,179.00,VWS V14.01,2013-09-15 20:48:00,
2013-09-15 15:53:00,62.6,57.0,30.08,SW,232,0.0,5.0,82,0.00,,OVC049,0.37,113.00,VWS V14.01,2013-09-15 20:53:00,
2013-09-15 15:58:00,62.2,56.6,30.08,East,89,0.0,5.0,82,0.00,,OVC049,0.37,127.00,VWS V14.01,2013-09-15 20:58:00,
2013-09-15 16:03:00,61.8,56.2,30.08,East,89,1.0,2.0,82,0.00,,OVC049,0.37,174.00,VWS V14.01,2013-09-15 21:03:00,
2013-09-15 16:08:00,61.4,55.9,30.08,NW,307,1.0,2.0,82,0.00,,OVC049,0.37,193.00,VWS V14.01,2013-09-15 21:08:00,
2013-09-15 16:13:00,61.4,55.9,30.09,NNW,337,0.0,4.0,82,0.00,,OVC049,0.37,209.00,VWS V14.01,2013-09-15 21:13:00,
2013-09-15 16:18:00,61.5,56.0,30.09,NE,41,0.0,6.0,82,0.00,,OVC049,0.37,225.00,VWS V14.01,2013-09-15 21:18:00,
2013-09-15 16:23:00,61.7,56.2,30.09,North,11,0.0,6.0,82,0.00,,OVC055,0.37,221.00,VWS V14.01,2013-09-15 21:23:00,
2013-09-15 16:28:00,61.8,55.9,30.09,North,11,1.0,6.0,81,0.00,,OVC055,0.37,308.00,VWS V14.01,2013-09-15 21:28:00,
2013-09-15 16:33:00,61.8,55.9,30.09,NW,319,0.0,2.0,81,0.00,,OVC055,0.37,90.00,VWS V14.01,2013-09-15 21:33:00,
2013-09-15 16:38:00,61.4,55.2,30.10,NNE,15,1.0,3.0,80,0.00,,OVC055,0.37,149.00,VWS V14.01,2013-09-15 21:38:00,
2013-09-15 16:43:00,61.2,55.3,30.10,SE,134,0.0,3.0,81,0.00,,OVC055,0.37,160.00,VWS V14.01,2013-09-15 21:43:00,
2013-09-15 16:48:00,61.1,55.2,30.10,SE,136,0.0,3.0,81,0.00,,OVC055,0.37,109.00,VWS V14.01,2013-09-15 21:48:00,
2013-09-15 16:53:00,60.9,54.0,30.11,WNW,300,0.0,3.0,78,0.00,,OVC055,0.37,98.00,VWS V14.01,2013-09-15 21:53:00,
2013-09-15 16:58:00,60.7,54.2,30.11,NNE,19,0.0,3.0,79,0.00,,OVC055,0.37,128.00,VWS V14.01,2013-09-15 21:58:00,
2013-09-15 17:03:00,60.6,53.7,30.11,NNE,19,0.0,1.0,78,0.00,,OVC055,0.37,172.00,VWS V14.01,2013-09-15 22:03:00,
2013-09-15 17:08:00,60.7,53.8,30.11,NE,34,0.0,4.0,78,0.00,,OVC055,0.37,100.00,VWS V14.01,2013-09-15 22:08:00,
2013-09-15 17:13:00,60.7,54.2,30.12,ESE,103,0.0,4.0,79,0.00,,OVC055,0.37,160.00,VWS V14.01,2013-09-15 22:13:00,
2013-09-15 17:18:00,60.6,53.7,30.12,WNW,288,1.0,6.0,78,0.00,,OVC055,0.37,132.00,VWS V14.01,2013-09-15 22:18:00,
2013-09-15 17:23:00,60.5,54.0,30.12,NW,309,1.0,7.0,79,0.00,,BKN055,0.37,120.00,VWS V14.01,2013-09-15 22:23:00,
2013-09-15 17:28:00,60.4,53.5,30.13,SSE,148,0.0,7.0,78,0.00,,BKN055,0.37,111.00,VWS V14.01,2013-09-15 22:28:00,
2013-09-15 17:33:00,60.3,53.1,30.13,NNE,20,3.0,8.0,77,0.00,,BKN055,0.37,97.00,VWS V14.01,2013-09-15 22:33:00,
2013-09-15 17:38:00,60.2,53.3,30.13,NNE,30,1.0,8.0,78,0.00,,BKN055,0.37,91.00,VWS V14.01,2013-09-15 22:38:00,
2013-09-15 17:43:00,59.8,52.6,30.13,NNW,348,1.0,8.0,77,0.00,,BKN055,0.37,86.00,VWS V14.01,2013-09-15 22:43:00,
2013-09-15 17:48:00,59.6,52.7,30.13,NE,54,1.0,8.0,78,0.00,,BKN055,0.37,83.00,VWS V14.01,2013-09-15 22:48:00,
2013-09-15 17:53:00,59.3,52.5,30.14,NW,322,0.0,8.0,78,0.00,,BKN055,0.37,98.00,VWS V14.01,2013-09-15 22:53:00,
2013-09-15 17:58:00,59.2,52.7,30.14,WNW,288,0.0,8.0,79,0.00,,BKN055,0.37,95.00,VWS V14.01,2013-09-15 22:58:00,
2013-09-15 18:03:00,59.1,52.6,30.14,NNE,20,0.0,5.0,79,0.00,,BKN055,0.37,86.00,VWS V14.01,2013-09-15 23:03:00,
2013-09-15 18:08:00,58.9,52.1,30.15,SSE,165,1.0,7.0,78,0.00,,BKN055,0.37,88.00,VWS V14.01,2013-09-15 23:08:00,
2013-09-15 18:13:00,58.5,51.7,30.15,North,355,1.0,7.0,78,0.00,,BKN055,0.37,67.00,VWS V14.01,2013-09-15 23:13:00,
2013-09-15 18:18:00,58.1,51.6,30.15,NW,318,3.0,7.0,79,0.00,,BKN055,0.37,65.00,VWS V14.01,2013-09-15 23:18:00,
2013-09-15 18:23:00,57.6,51.5,30.16,NE,54,0.0,7.0,80,0.00,,OVC034,0.37,77.00,VWS V14.01,2013-09-15 23:23:00,
2013-09-15 18:28:00,57.5,51.4,30.16,NE,47,0.0,8.0,80,0.00,,OVC034,0.37,179.00,VWS V14.01,2013-09-15 23:28:00,
2013-09-15 18:33:00,57.5,51.0,30.16,NE,39,0.0,6.0,79,0.00,,OVC034,0.37,151.00,VWS V14.01,2013-09-15 23:33:00,
2013-09-15 18:38:00,57.7,51.9,30.16,NNE,15,0.0,6.0,81,0.00,,OVC034,0.37,125.00,VWS V14.01,2013-09-15 23:38:00,
2013-09-15 18:43:00,57.7,51.2,30.17,NE,44,0.0,6.0,79,0.00,,OVC034,0.37,100.00,VWS V14.01,2013-09-15 23:43:00,
2013-09-15 18:48:00,57.4,51.0,30.17,WNW,299,0.0,6.0,79,0.00,,OVC034,0.37,30.00,VWS V14.01,2013-09-15 23:48:00,
2013-09-15 18:53:00,56.8,50.4,30.17,NNE,15,0.0,6.0,79,0.00,,OVC034,0.37,19.00,VWS V14.01,2013-09-15 23:53:00,
2013-09-15 18:58:00,56.2,50.1,30.17,NNE,15,0.0,6.0,80,0.00,,OVC034,0.37,16.00,VWS V14.01,2013-09-15 23:58:00,
2013-09-15 19:03:00,55.6,49.5,30.18,NNE,15,0.0,1.0,80,0.00,,OVC034,0.37,9.00,VWS V14.01,2013-09-16 00:03:00,
2013-09-15 19:08:00,55.2,49.5,30.18,NW,309,0.0,3.0,81,0.00,,OVC034,0.37,7.00,VWS V14.01,2013-09-16 00:08:00,
2013-09-15 19:13:00,54.8,49.4,30.18,NW,309,0.0,3.0,82,0.00,,OVC034,0.37,0.00,VWS V14.01,2013-09-16 00:13:00,
2013-09-15 19:18:00,54.3,48.6,30.18,NNW,338,0.0,3.0,81,0.00,,OVC034,0.37,0.00,VWS V14.01,2013-09-16 00:18:00,
2013-09-15 19:23:00,54.0,48.3,30.18,West,273,1.0,7.0,81,0.00,,OVC034,0.37,0.00,VWS V14.01,2013-09-16 00:23:00,
2013-09-15 19:28:00,53.7,48.3,30.19,North,9,0.0,7.0,82,0.00,,OVC034,0.37,0.00,VWS V14.01,2013-09-16 00:28:00,
2013-09-15 19:33:00,53.4,47.7,30.19,North,350,0.0,3.0,81,0.00,,OVC034,0.37,0.00,VWS V14.01,2013-09-16 00:33:00,
2013-09-15 19:38:00,53.2,47.5,30.19,WSW,248,0.0,3.0,81,0.00,,OVC034,0.37,0.00,VWS V14.01,2013-09-16 00:38:00,
2013-09-15 19:43:00,53.0,47.3,30.19,SE,135,0.0,3.0,81,0.00,,OVC034,0.37,0.00,VWS V14.01,2013-09-16 00:43:00,
2013-09-15 19:48:00,52.8,47.1,30.20,ENE,68,0.0,4.0,81,0.00,,OVC034,0.37,0.00,VWS V14.01,2013-09-16 00:48:00,
2013-09-15 19:53:00,52.6,46.9,30.20,East,80,0.0,4.0,81,0.00,,OVC034,0.37,0.00,VWS V14.01,2013-09-16 00:53:00,
2013-09-15 19:58:00,52.5,46.5,30.20,ENE,67,1.0,4.0,80,0.00,,OVC034,0.37,0.00,VWS V14.01,2013-09-16 00:58:00,
2013-09-15 20:03:00,52.3,46.3,30.20,ENE,58,0.0,6.0,80,0.00,,OVC034,0.37,0.00,VWS V14.01,2013-09-16 01:03:00,
2013-09-15 20:08:00,52.1,46.5,30.21,NW,311,0.0,6.0,81,0.00,,OVC034,0.37,0.00,VWS V14.01,2013-09-16 01:08:00,
2013-09-15 20:13:00,51.9,46.3,30.21,NW,311,1.0,6.0,81,0.00,,OVC034,0.37,0.00,VWS V14.01,2013-09-16 01:13:00,
2013-09-15 20:18:00,51.8,46.2,30.21,NW,311,0.0,6.0,81,0.00,,OVC034,0.37,0.00,VWS V14.01,2013-09-16 01:18:00,
2013-09-15 20:23:00,51.6,45.6,30.21,NNW,327,0.0,6.0,80,0.00,,OVC032,0.37,0.00,VWS V14.01,2013-09-16 01:23:00,
2013-09-15 20:28:00,51.4,46.1,30.21,NNW,327,0.0,6.0,82,0.00,,OVC032,0.37,0.00,VWS V14.01,2013-09-16 01:28:00,
2013-09-15 20:33:00,51.3,46.0,30.21,NNW,327,0.0,1.0,82,0.00,,OVC032,0.37,0.00,VWS V14.01,2013-09-16 01:33:00,
2013-09-15 20:38:00,51.1,46.1,30.22,NNW,327,1.0,1.0,83,0.00,,OVC032,0.37,0.00,VWS V14.01,2013-09-16 01:38:00,
2013-09-15 20:43:00,50.9,45.6,30.21,NNW,327,0.0,1.0,82,0.00,,OVC032,0.37,0.00,VWS V14.01,2013-09-16 01:43:00,
2013-09-15 20:48:00,50.8,45.5,30.21,NNW,327,0.0,1.0,82,0.00,,OVC032,0.37,0.00,VWS V14.01,2013-09-16 01:48:00,
2013-09-15 20:53:00,50.8,45.5,30.22,NNW,327,1.0,1.0,82,0.00,,OVC032,0.37,0.00,VWS V14.01,2013-09-16 01:53:00,
2013-09-15 20:58:00,50.8,45.5,30.22,ESE,113,0.0,1.0,82,0.00,,OVC032,0.37,0.00,VWS V14.01,2013-09-16 01:58:00,
2013-09-15 21:03:00,50.9,45.6,30.22,ESE,113,0.0,1.0,82,0.00,,BKN030,0.37,0.00,VWS V14.01,2013-09-16 02:03:00,
2013-09-15 21:08:00,50.9,45.9,30.22,ESE,113,0.0,1.0,83,0.00,,BKN030,0.37,0.00,VWS V14.01,2013-09-16 02:08:00,
2013-09-15 21:13:00,50.9,45.6,30.22,ESE,113,0.0,2.0,82,0.00,,BKN030,0.37,0.00,VWS V14.01,2013-09-16 02:13:00,
2013-09-15 21:18:00,51.0,45.7,30.22,South,173,1.0,2.0,82,0.00,,BKN030,0.37,0.00,VWS V14.01,2013-09-16 02:18:00,
2013-09-15 21:23:00,51.0,46.0,30.23,South,173,0.0,2.0,83,0.00,,BKN030,0.37,0.00,VWS V14.01,2013-09-16 02:23:00,
2013-09-15 21:28:00,51.1,46.1,30.23,South,173,0.0,2.0,83,0.00,,BKN030,0.37,0.00,VWS V14.01,2013-09-16 02:28:00,
2013-09-15 21:33:00,51.1,46.1,30.23,WNW,295,0.0,5.0,83,0.00,,BKN030,0.37,0.00,VWS V14.01,2013-09-16 02:33:00,
2013-09-15 21:38:00,51.0,46.0,30.23,WNW,295,0.0,5.0,83,0.00,,BKN030,0.37,0.00,VWS V14.01,2013-09-16 02:38:00,
2013-09-15 21:43:00,50.9,45.3,30.23,WNW,295,0.0,5.0,81,0.00,,BKN030,0.37,0.00,VWS V14.01,2013-09-16 02:43:00,
2013-09-15 21:48:00,50.8,45.5,30.23,NW,325,0.0,5.0,82,0.00,,BKN030,0.37,0.00,VWS V14.01,2013-09-16 02:48:00,
2013-09-15 21:53:00,50.6,45.3,30.24,SSW,209,0.0,5.0,82,0.00,,BKN030,0.37,0.00,VWS V14.01,2013-09-16 02:53:00,
2013-09-15 21:58:00,50.3,45.0,30.24,SSW,209,0.0,5.0,82,0.00,,BKN030,0.37,0.00,VWS V14.01,2013-09-16 02:58:00,
2013-09-15 22:03:00,50.0,44.7,30.24,SSW,209,0.0,1.0,82,0.00,,BKN030,0.37,0.00,VWS V14.01,2013-09-16 03:03:00,
2013-09-15 22:08:00,49.5,44.2,30.24,SSW,209,0.0,1.0,82,0.00,,BKN030,0.37,0.00,VWS V14.01,2013-09-16 03:08:00,
2013-09-15 22:13:00,49.1,43.8,30.24,SSW,209,0.0,1.0,82,0.00,,BKN030,0.37,0.00,VWS V14.01,2013-09-16 03:13:00,
2013-09-15 22:18:00,48.7,44.1,30.24,SSW,209,0.0,1.0,84,0.00,,BKN030,0.37,0.00,VWS V14.01,2013-09-16 03:18:00,
2013-09-15 22:23:00,48.3,43.7,30.24,SSW,209,0.0,1.0,84,0.00,,BKN024,0.37,0.00,VWS V14.01,2013-09-16 03:23:00,
2013-09-15 22:28:00,47.9,43.3,30.25,SSW,209,0.0,0.0,84,0.00,,BKN024,0.37,0.00,VWS V14.01,2013-09-16 03:28:00,
2013-09-15 22:33:00,47.5,43.2,30.25,SSW,209,0.0,0.0,85,0.00,,BKN024,0.37,0.00,VWS V14.01,2013-09-16 03:33:00,
2013-09-15 22:38:00,47.3,43.3,30.25,SSW,209,0.0,0.0,86,0.00,,BKN024,0.37,0.00,VWS V14.01,2013-09-16 03:38:00,
2013-09-15 22:43:00,47.0,43.0,30.25,SSW,209,0.0,0.0,86,0.00,,BKN024,0.37,0.00,VWS V14.01,2013-09-16 03:43:00,
2013-09-15 22:48:00,46.7,42.7,30.25,SSW,209,0.0,0.0,86,0.00,,BKN024,0.37,0.00,VWS V14.01,2013-09-16 03:48:00,
2013-09-15 22:53:00,46.4,42.5,30.26,SSW,209,0.0,0.0,86,0.00,,BKN024,0.37,0.00,VWS V14.01,2013-09-16 03:53:00,
2013-09-15 22:58:00,46.2,42.5,30.26,SSW,209,0.0,0.0,87,0.00,,BKN024,0.37,0.00,VWS V14.01,2013-09-16 03:58:00,
2013-09-15 23:01:00,46.1,42.5,30.26,SSW,209,0.0,0.0,87,0.00,,SCT024,0.37,0.00,VWS V14.01,2013-09-16 04:01:00,
2013-09-15 23:02:00,46.1,42.5,30.26,SSW,209,0.0,0.0,87,0.00,,SCT024,0.37,0.00,VWS V14.01,2013-09-16 04:02:00,
2013-09-15 23:07:00,45.9,42.5,30.26,SSW,209,0.0,0.0,88,0.00,,SCT024,0.37,0.00,VWS V14.01,2013-09-16 04:07:00,
2013-09-15 23:12:00,45.8,42.5,30.26,SSW,209,0.0,0.0,88,0.00,,SCT024,0.37,0.00,VWS V14.01,2013-09-16 04:12:00,
2013-09-15 23:17:00,45.6,42.3,30.26,SSW,209,0.0,0.0,88,0.00,,SCT024,0.37,0.00,VWS V14.01,2013-09-16 04:17:00,
2013-09-15 23:22:00,45.4,42.1,30.26,SSW,209,0.0,0.0,88,0.00,,CLR,0.37,0.00,VWS V14.01,2013-09-16 04:22:00,
2013-09-15 23:27:00,45.3,42.3,30.26,SSW,209,0.0,0.0,89,0.00,,CLR,0.37,0.00,VWS V14.01,2013-09-16 04:27:00,
2013-09-15 23:32:00,45.1,42.1,30.26,SSW,209,0.0,0.0,89,0.00,,CLR,0.37,0.00,VWS V14.01,2013-09-16 04:32:00,
2013-09-15 23:37:00,44.9,41.9,30.27,SSW,209,0.0,0.0,89,0.00,,CLR,0.37,0.00,VWS V14.01,2013-09-16 04:37:00,
2013-09-15 23:42:00,44.4,41.4,30.27,SSW,209,0.0,0.0,89,0.00,,CLR,0.37,0.00,VWS V14.01,2013-09-16 04:42:00,
2013-09-15 23:47:00,44.2,41.2,30.27,SSW,209,0.0,0.0,89,0.00,,CLR,0.37,0.00,VWS V14.01,2013-09-16 04:47:00,
2013-09-15 23:52:00,44.1,41.4,30.27,SSW,209,0.0,0.0,90,0.00,,CLR,0.37,0.00,VWS V14.01,2013-09-16 04:52:00,
2013-09-15 23:57:00,43.9,40.9,30.27,SSW,209,0.0,0.0,89,0.00,,CLR,0.37,0.00,VWS V14.01,2013-09-16 04:57:00,